Weather History for Salina, KS

Change the Weather History Date:

Tuesday, December 17, 2013

  Actual Average Record
Temperature  
Mean Temperature 39 °F 32 °F  
Max Temperature 53 °F 42 °F 78 °F (1939)
Min Temperature 24 °F 22 °F -11 °F (1902)
Degree Days  
Heating Degree Days 26 33  
Month to date heating degree days 579 534  
Since 1 July heating degree days 1567 1486  
Cooling Degree Days 0 0  
Month to date cooling degree days 0 0  
Year to date cooling degree days 1750 1647  
Moisture  
Dew Point 20 °F    
Average Humidity 61    
Maximum Humidity 85    
Minimum Humidity 26    
Precipitation  
Precipitation 0.00 in 0.03 in 0.41 in (1907)
Month to date precipitation T 0.58  
Year to date precipitation 29.41 31.14  
Sea Level Pressure  
Sea Level Pressure 30.26 in    
Wind  
Wind Speed 5 mph (SSW)    
Max Wind Speed 14 mph    
Max Gust Speed 20 mph    
Visibility 10 miles    
Events      
T = Trace of Precipitation, MM = Missing Value Source: NWS Daily Summary

Daily Weather History Graph

Daily Weather History Graph

Search for Another Location

Airport:

Trip Planner

Search our weather history database for the weather conditions in past years. The results will help you decide how hot, cold, wet, or windy it might be!

Date:

Astronomy

Dec. 17, 2013 Rise Set
Actual Time 7:43 AM CST 5:10 PM CST
Civil Twilight 7:13 AM CST 5:40 PM CST
Nautical Twilight 6:39 AM CST 6:13 PM CST
Astronomical Twilight 6:07 AM CST 6:46 PM CST
Moon 5:51 PM CST (12/17) 7:41 AM CST (12/17)
Length of Visible Light 10h 27m
Length of Day
9h 27m
Full, 100% of the Moon is Illuminated
Dec 17
Full
Dec 25
Last Quarter
Jan 1
New
Jan 7
First Quarter
Jan 15
Full

Hourly Weather History & Observations

Time (CST) Temp. Windchill Dew Point Humidity Pressure Visibility Wind Dir Wind Speed Gust Speed Precip Events Conditions
12:53 AM 32.0 °F - 21.9 °F 66% 30.18 in 10.0 mi Calm Calm - N/A   Clear
1:53 AM 28.0 °F 20.8 °F 21.9 °F 78% 30.20 in 10.0 mi NNE 6.9 mph - N/A   Clear
2:53 AM 30.9 °F 25.2 °F 24.1 °F 76% 30.22 in 10.0 mi NNE 5.8 mph - N/A   Clear
3:53 AM 27.0 °F - 21.0 °F 78% 30.23 in 10.0 mi Calm Calm - N/A   Clear
4:53 AM 27.0 °F 21.6 °F 21.9 °F 81% 30.23 in 10.0 mi SW 4.6 mph - N/A   Clear
5:53 AM 28.0 °F 24.2 °F 23.0 °F 81% 30.25 in 10.0 mi WSW 3.5 mph - N/A   Clear
6:53 AM 25.0 °F - 21.0 °F 85% 30.29 in 10.0 mi Calm Calm - N/A   Clear
7:53 AM 26.1 °F 16.2 °F 21.0 °F 81% 30.32 in 9.0 mi West 10.4 mph - N/A   Clear
8:53 AM 30.9 °F - 25.0 °F 79% 30.36 in 10.0 mi Calm Calm - N/A   Clear
9:53 AM 37.9 °F 30.5 °F 28.0 °F 68% 30.40 in 10.0 mi NW 11.5 mph - N/A   Clear
11:53 AM - - - N/A% - - North - - N/A   Unknown
12:53 PM - - - N/A% - - North - - N/A   Clear
1:53 PM 52.0 °F - 23.0 °F 32% 30.31 in 10.0 mi North 13.8 mph 19.6 mph N/A   Clear
2:53 PM 53.1 °F - 19.9 °F 27% 30.28 in 10.0 mi North 6.9 mph - N/A   Clear
3:53 PM 53.1 °F - 19.0 °F 26% 30.29 in 10.0 mi NNE 3.5 mph - N/A   Clear
4:53 PM 48.9 °F - 19.0 °F 31% 30.28 in 10.0 mi Calm Calm - N/A   Clear
5:53 PM 39.0 °F 36.8 °F 17.1 °F 41% 30.28 in 10.0 mi SE 3.5 mph - N/A   Clear
6:53 PM 36.0 °F 32.1 °F 18.0 °F 48% 30.26 in 10.0 mi SSE 4.6 mph - N/A   Clear
7:53 PM 33.1 °F 28.7 °F 17.1 °F 52% 30.24 in 10.0 mi South 4.6 mph - N/A   Clear
8:53 PM 28.0 °F 21.7 °F 16.0 °F 61% 30.23 in 10.0 mi South 5.8 mph - N/A   Clear
9:53 PM 30.0 °F 25.2 °F 16.0 °F 56% 30.23 in 10.0 mi South 4.6 mph - N/A   Clear
10:53 PM 27.0 °F 20.5 °F 16.0 °F 63% 30.21 in 10.0 mi South 5.8 mph - N/A   Clear
11:53 PM 30.0 °F 22.4 °F 19.0 °F 64% 30.19 in 10.0 mi South 8.1 mph - N/A   Clear